Regional Weather Roundup
Issued by NWS Cleveland, OH

Home | Current Version | Previous Version | Graphics & Text | Print | Product List | Glossary On
Versions: 1 2 3 4 5 6 7 8 9 10 11 12 13 14 15 16 17 18 19 20 21 22 23 24 25 26 27 28 29 30 31 32 33 34 35 36 37 38 39 40 41 42 43 44 45 46 47 48 49 50
000
ASUS41 KCLE 021500
RWRCLE
OHIO REGIONAL WEATHER ROUNDUP
NATIONAL WEATHER SERVICE WILMINGTON, OH
1100 AM EDT THU OCT 02 2014

NOTE: "FAIR" INDICATES FEW OR NO CLOUDS BELOW 12,000 FEET WITH NO
SIGNIFICANT WEATHER AND/OR OBSTRUCTIONS TO VISIBILITY.

OHZ001>008-015>018-024>027-034-035-043-044-021600-
   NORTHWEST OHIO

CITY           SKY/WX    TMP DP  RH WIND       PRES   REMARKS
DEFIANCE       FAIR      69  57  65 S10       29.97F
FINDLAY        FAIR      68  57  68 SE10      30.00F
TOLEDO EXPRESS FAIR      63  55  75 SE6       29.99F
TOLEDO METCALF FAIR      66  55  67 SE10      30.01F
LIMA           FAIR      73  58  59 SE12      30.00F
$$

OHZ009>014-019>023-028>033-038-089-021600-
   NORTHEAST OHIO

CITY           SKY/WX    TMP DP  RH WIND       PRES   REMARKS
CLE-HOPKINS    FAIR      64  57  78 S8        30.08F
CLE-LAKEFRONT  FAIR      64  55  72 SE7       30.06F
CUY CO. ARPT   MOSUNNY   61  59  94 SE9       30.08F
LORAIN-ELYRIA  FAIR      67  56  67 S9        30.06F
ASHTABULA      PTSUNNY   61  58  90 SE8       30.10F FOG
AKRON-CANTON   FAIR      58  54  86 S6        30.09F FOG
WOOSTER        NOT AVBL
MANSFIELD      FAIR      66  55  67 S9        30.06F
YOUNGSTOWN     FOG       57  56  96 SE7       30.10F VSB 1/2
$$

OHZ042-051>053-060>062-070>072-077>081-021600-
  SOUTHWEST OHIO

CITY           SKY/WX    TMP DP  RH WIND       PRES   REMARKS
CINC-COVINGTON PTSUNNY   75  58  55 SW10      30.03F
CINC-LUNKEN    FAIR      72  60  66 S8        30.03F
HAMILTON       FAIR      76  60  57 S8        30.02F
DAYTON         NOT AVBL
WRIGHT-PAT AFB NOT AVBL
DAYTON GENERAL FAIR      73  60  63 S13       30.02F
WILMINGTON     FAIR      76  58  53 S12       30.04F
$$

OHZ036-037-039>041-045>050-054>059-063>069-073>076-082>088-021600-
  CENTRAL AND SOUTHEAST OHIO

CITY           SKY/WX    TMP DP  RH WIND       PRES   REMARKS
COLUMBUS       FAIR      68  56  65 SE8       30.06F
OSU AIRPORT    FAIR      67  57  70 SE8       30.05F
BOLTON FIELD   PTSUNNY   66  59  77 S8        30.06F
RICKENBACK AFB NOT AVBL
NEWARK         FAIR      63  54  72 CALM      30.08F
MARION         FAIR      68  58  70 S10       30.05F
LANCASTER      FAIR      67  57  70 SE8       30.07F
ZANESVILLE     FAIR      62  55  77 SE3       30.09F
NEW PHILLY     FAIR      56  55  97 VRB5      30.11F
$$



USA.gov is the U.S. government's official web portal to all federal, state and local government web resources and services.